When you browse on this site, cookies collect data to enhance your experience and personalize the content and advertising you see.
Visit our Privacy Policy to learn more. By continuing to use the site, you agree to this use of cookies and data.

Stündliche Wetter Bolshie Lyzki

Heute, 23 September, Mittwoch

Zeit Temperatur Niederschläge Wind Luftdruck Luftfeuchtigkeit
00:00 +12°C° 0 mm 2 m/S 745 mmHg 88%
01:00 +12°C° 0 mm 2 m/S 745 mmHg 89%
02:00 +12°C° 0 mm 2 m/S 745 mmHg 88%
03:00 +10°C° 0 mm 2 m/S 745 mmHg 89%
04:00 +10°C° 0 mm 2 m/S 745 mmHg 89%
05:00 +10°C° 0 mm 2 m/S 745 mmHg 90%
06:00 +12°C° 0 mm 2 m/S 745 mmHg 87%
07:00 +13°C° 0 mm 2 m/S 745 mmHg 83%
08:00 +13°C° 0 mm 3 m/S 745 mmHg 80%
09:00 +16°C° 0 mm 3 m/S 745 mmHg 76%
10:00 +18°C° 0 mm 3 m/S 745 mmHg 71%
11:00 +19°C° 0 mm 3 m/S 745 mmHg 67%
12:00 +20°C° 0 mm 3 m/S 745 mmHg 63%
13:00 +21°C° 0 mm 4 m/S 745 mmHg 60%
14:00 +22°C° 0 mm 4 m/S 745 mmHg 56%
15:00 +20°C° 0 mm 4 m/S 745 mmHg 61%
16:00 +19°C° 0 mm 3 m/S 744 mmHg 66%
17:00 +18°C° 0 mm 3 m/S 744 mmHg 70%
18:00 +16°C° 0 mm 3 m/S 744 mmHg 72%
19:00 +14°C° 0 mm 3 m/S 744 mmHg 73%
20:00 +13°C° 0 mm 3 m/S 744 mmHg 75%
21:00 +12°C° 0 mm 3 m/S 744 mmHg 74%
22:00 +12°C° 0 mm 3 m/S 744 mmHg 72%
23:00 +11°C° 0 mm 3 m/S 744 mmHg 71%

Morgen, 24 September, Donnerstag

Zeit Temperatur Niederschläge Wind Luftdruck Luftfeuchtigkeit
00:00 +11°C° 0 mm 3 m/S 744 mmHg 70%
01:00 +12°C° 0 mm 2 m/S 744 mmHg 69%
02:00 +10°C° 0 mm 2 m/S 745 mmHg 68%
03:00 +10°C° 0 mm 2 m/S 745 mmHg 69%
04:00 +10°C° 0 mm 2 m/S 744 mmHg 70%
05:00 +9°C° 0 mm 2 m/S 744 mmHg 70%
06:00 +10°C° 0 mm 3 m/S 744 mmHg 70%
07:00 +11°C° 0 mm 3 m/S 744 mmHg 69%
08:00 +12°C° 0 mm 3 m/S 744 mmHg 68%
09:00 +14°C° 0 mm 3 m/S 744 mmHg 64%
10:00 +17°C° 0 mm 3 m/S 745 mmHg 60%
11:00 +18°C° 0 mm 3 m/S 745 mmHg 57%
12:00 +19°C° 0 mm 3 m/S 745 mmHg 55%
13:00 +20°C° 0 mm 3 m/S 745 mmHg 53%
14:00 +21°C° 0 mm 4 m/S 745 mmHg 50%
15:00 +20°C° 0 mm 3 m/S 744 mmHg 57%
16:00 +18°C° 0 mm 3 m/S 744 mmHg 64%
17:00 +17°C° 0 mm 3 m/S 744 mmHg 70%
18:00 +16°C° 0 mm 3 m/S 744 mmHg 72%
19:00 +14°C° 0 mm 3 m/S 744 mmHg 74%
20:00 +13°C° 0 mm 3 m/S 744 mmHg 76%
21:00 +12°C° 0 mm 3 m/S 744 mmHg 76%
22:00 +12°C° 0 mm 3 m/S 744 mmHg 76%
23:00 +11°C° 0 mm 3 m/S 744 mmHg 75%

übermorgen, 25 September, Freitag

Zeit Temperatur Niederschläge Wind Luftdruck Luftfeuchtigkeit
00:00 +11°C° 0 mm 3 m/S 744 mmHg 75%
01:00 +11°C° 0 mm 3 m/S 744 mmHg 75%
02:00 +10°C° 0 mm 3 m/S 744 mmHg 74%
03:00 +10°C° 0 mm 3 m/S 744 mmHg 74%
04:00 +10°C° 0 mm 3 m/S 744 mmHg 74%
05:00 +10°C° 0 mm 3 m/S 744 mmHg 74%
06:00 +11°C° 0 mm 3 m/S 744 mmHg 72%
07:00 +12°C° 0 mm 3 m/S 744 mmHg 69%
08:00 +13°C° 0 mm 4 m/S 744 mmHg 67%
09:00 +15°C° 0 mm 4 m/S 744 mmHg 64%
10:00 +17°C° 0 mm 4 m/S 743 mmHg 61%
11:00 +19°C° 0 mm 4 m/S 743 mmHg 58%
12:00 +20°C° 0 mm 4 m/S 743 mmHg 57%
13:00 +21°C° 0 mm 5 m/S 743 mmHg 56%
14:00 +22°C° 0 mm 5 m/S 743 mmHg 54%
15:00 +21°C° 0 mm 5 m/S 743 mmHg 60%
16:00 +20°C° 0 mm 4 m/S 742 mmHg 66%
17:00 +18°C° 0 mm 4 m/S 742 mmHg 71%
18:00 +18°C° 0 mm 4 m/S 742 mmHg 72%
19:00 +17°C° 0 mm 4 m/S 742 mmHg 73%
20:00 +15°C° 0 mm 4 m/S 742 mmHg 73%
21:00 +15°C° 0 mm 4 m/S 742 mmHg 71%
22:00 +14°C° 0 mm 4 m/S 742 mmHg 69%
23:00 +14°C° 0 mm 4 m/S 742 mmHg 67%

26 September, Samstag

Zeit Temperatur Niederschläge Wind Luftdruck Luftfeuchtigkeit
00:00 +13°C° 0 mm 4 m/S 742 mmHg 68%
01:00 +13°C° 0 mm 4 m/S 742 mmHg 68%
02:00 +13°C° 0 mm 4 m/S 741 mmHg 69%
03:00 +12°C° 0 mm 5 m/S 741 mmHg 70%
04:00 +12°C° 0 mm 5 m/S 741 mmHg 70%
05:00 +12°C° 0 mm 5 m/S 741 mmHg 71%
06:00 +13°C° 0 mm 5 m/S 741 mmHg 70%
07:00 +13°C° 0 mm 5 m/S 742 mmHg 70%
08:00 +14°C° 0 mm 5 m/S 742 mmHg 70%
09:00 +15°C° 0 mm 6 m/S 742 mmHg 66%
10:00 +17°C° 0 mm 6 m/S 742 mmHg 62%
11:00 +20°C° 0 mm 6 m/S 743 mmHg 58%
12:00 +21°C° 0 mm 6 m/S 743 mmHg 56%
13:00 +21°C° 0 mm 6 m/S 743 mmHg 55%
14:00 +22°C° 0 mm 6 m/S 742 mmHg 54%
15:00 +21°C° 0 mm 6 m/S 742 mmHg 58%
16:00 +20°C° 0 mm 5 m/S 742 mmHg 62%
17:00 +19°C° 0 mm 5 m/S 742 mmHg 67%
18:00 +17°C° 0 mm 5 m/S 742 mmHg 66%
19:00 +16°C° 0 mm 5 m/S 742 mmHg 65%
20:00 +15°C° 0 mm 6 m/S 742 mmHg 64%
21:00 +15°C° 0 mm 6 m/S 742 mmHg 65%
22:00 +14°C° 0 mm 6 m/S 742 mmHg 66%
23:00 +14°C° 0 mm 6 m/S 742 mmHg 66%

27 September, Sonntag

Zeit Temperatur Niederschläge Wind Luftdruck Luftfeuchtigkeit
00:00 +14°C° 0 mm 6 m/S 742 mmHg 66%
01:00 +13°C° 0 mm 6 m/S 742 mmHg 65%
02:00 +13°C° 0 mm 6 m/S 742 mmHg 64%
03:00 +13°C° 0 mm 6 m/S 742 mmHg 64%
04:00 +13°C° 0 mm 6 m/S 742 mmHg 64%
05:00 +13°C° 0 mm 6 m/S 742 mmHg 64%
06:00 +13°C° 0 mm 6 m/S 742 mmHg 64%
07:00 +14°C° 0 mm 7 m/S 742 mmHg 64%
08:00 +14°C° 0 mm 7 m/S 742 mmHg 65%
09:00 +16°C° 0 mm 7 m/S 743 mmHg 61%
10:00 +17°C° 0 mm 8 m/S 743 mmHg 57%
11:00 +20°C° 0 mm 8 m/S 743 mmHg 53%
12:00 +20°C° 0 mm 8 m/S 743 mmHg 52%
13:00 +20°C° 0 mm 8 m/S 743 mmHg 50%
14:00 +20°C° 0 mm 8 m/S 743 mmHg 49%
15:00 +18°C° 0 mm 8 m/S 742 mmHg 51%
16:00 +17°C° 0 mm 7 m/S 742 mmHg 52%
17:00 +16°C° 0 mm 7 m/S 742 mmHg 54%
18:00 +15°C° 0 mm 7 m/S 742 mmHg 53%
19:00 +15°C° 0 mm 7 m/S 742 mmHg 51%
20:00 +15°C° 0 mm 7 m/S 742 mmHg 50%
21:00 +15°C° 0 mm 7 m/S 742 mmHg 49%
22:00 +15°C° 0 mm 7 m/S 742 mmHg 47%
23:00 +15°C° 0 mm 7 m/S 742 mmHg 46%

28 September, Montag

Zeit Temperatur Niederschläge Wind Luftdruck Luftfeuchtigkeit
00:00 +15°C° 0.2 mm 7 m/S 741 mmHg 53%
01:00 +14°C° 0.2 mm 7 m/S 741 mmHg 60%
02:00 +13°C° 0.2 mm 6 m/S 741 mmHg 68%
03:00 +12°C° 0.7 mm 7 m/S 741 mmHg 75%
04:00 +11°C° 0.7 mm 7 m/S 741 mmHg 82%
05:00 +11°C° 0.7 mm 8 m/S 741 mmHg 89%
06:00 +11°C° 0.2 mm 8 m/S 741 mmHg 86%
07:00 +11°C° 0.2 mm 7 m/S 741 mmHg 84%
08:00 +11°C° 0.2 mm 7 m/S 741 mmHg 81%
09:00 +12°C° 0 mm 7 m/S 741 mmHg 79%
10:00 +12°C° 0 mm 7 m/S 742 mmHg 77%
11:00 +14°C° 0 mm 6 m/S 742 mmHg 75%
12:00 +14°C° 0 mm 6 m/S 742 mmHg 76%
13:00 +15°C° 0 mm 6 m/S 742 mmHg 77%
14:00 +15°C° 0 mm 6 m/S 742 mmHg 77%
15:00 +14°C° 0.1 mm 6 m/S 741 mmHg 80%
16:00 +13°C° 0.1 mm 6 m/S 741 mmHg 82%
17:00 +13°C° 0.1 mm 6 m/S 741 mmHg 84%
18:00 +13°C° 0.1 mm 6 m/S 741 mmHg 85%
19:00 +13°C° 0.1 mm 6 m/S 742 mmHg 86%
20:00 +11°C° 0.1 mm 6 m/S 742 mmHg 86%
21:00 +12°C° 0 mm 5 m/S 742 mmHg 87%
22:00 +12°C° 0 mm 5 m/S 742 mmHg 87%
23:00 +12°C° 0 mm 5 m/S 742 mmHg 88%
Mehr zeigen